CES7744 ZSPD-ZSAM

Flight info

Callsign CES7744
Flight time 1h 24m
Altitude 32100
Route NXD91D NXD W131 AKDIM A470 ENVEN ENVEN8X
Aircraft B738/M-SDE2E3FGHIRWXY/LB1

Departure

Time 2026-04-30 09:21
Airport Shanghai Pudong International Airport (ZSPD)

Arrival

Time 2026-04-30 10:46
Airport Xiamen Gaoqi International Airport (ZSAM)
Time Latitude Longitude Altitude Speed Heading
2026-04-30 08:54 31.13218 121.80546 24 ft 0 kts 252°
2026-04-30 09:11 31.13225 121.80572 23 ft 4 kts 252°
2026-04-30 09:11 31.13234 121.80602 25 ft 3 kts 252°
2026-04-30 09:11 31.13241 121.80625 23 ft 4 kts 241°
2026-04-30 09:11 31.13255 121.80644 24 ft 4 kts 175°
2026-04-30 09:12 31.13279 121.80636 22 ft 4 kts 162°
2026-04-30 09:12 31.13288 121.80633 23 ft 0 kts 162°
2026-04-30 09:15 31.13280 121.80636 23 ft 3 kts 162°
2026-04-30 09:15 31.13246 121.80648 27 ft 8 kts 162°
2026-04-30 09:16 31.13181 121.80673 22 ft 12 kts 162°
2026-04-30 09:16 31.13089 121.80708 22 ft 16 kts 162°
2026-04-30 09:16 31.12983 121.80749 22 ft 16 kts 162°
2026-04-30 09:16 31.12878 121.80778 22 ft 15 kts 195°
2026-04-30 09:17 31.12843 121.80704 22 ft 10 kts 252°
2026-04-30 09:17 31.12821 121.80624 23 ft 10 kts 252°
2026-04-30 09:17 31.12800 121.80547 22 ft 10 kts 252°
2026-04-30 09:17 31.12776 121.80462 22 ft 12 kts 252°
2026-04-30 09:18 31.12748 121.80359 22 ft 14 kts 252°
2026-04-30 09:18 31.12730 121.80296 22 ft 0 kts 251°
2026-04-30 09:18 31.12727 121.80284 22 ft 4 kts 252°
2026-04-30 09:19 31.12716 121.80234 22 ft 9 kts 272°
2026-04-30 09:19 31.12765 121.80194 24 ft 11 kts 326°
2026-04-30 09:19 31.12770 121.80106 24 ft 14 kts 251°
2026-04-30 09:19 31.12745 121.80016 22 ft 10 kts 252°
2026-04-30 09:20 31.12724 121.79940 25 ft 10 kts 252°
2026-04-30 09:20 31.12743 121.79875 22 ft 10 kts 328°
2026-04-30 09:20 31.12807 121.79849 21 ft 9 kts 342°
2026-04-30 09:20 31.12874 121.79824 21 ft 13 kts 342°
2026-04-30 09:21 31.13116 121.79734 21 ft 70 kts 342°
2026-04-30 09:21 31.13794 121.79479 21 ft 132 kts 342°
2026-04-30 09:21 31.14780 121.79133 282 ft 158 kts 342°
2026-04-30 09:21 31.15812 121.78724 1011 ft 154 kts 341°
2026-04-30 09:22 31.16833 121.78311 1736 ft 155 kts 340°
2026-04-30 09:22 31.17914 121.77872 2148 ft 178 kts 341°
2026-04-30 09:22 31.19171 121.77365 2410 ft 203 kts 341°
2026-04-30 09:22 31.20580 121.76801 2600 ft 223 kts 340°
2026-04-30 09:23 31.22085 121.76198 3055 ft 232 kts 340°
2026-04-30 09:23 31.23624 121.75585 3807 ft 233 kts 341°
2026-04-30 09:23 31.25151 121.74978 4658 ft 230 kts 341°
2026-04-30 09:23 31.26676 121.74374 5379 ft 233 kts 341°
2026-04-30 09:24 31.28220 121.73762 6027 ft 237 kts 341°
2026-04-30 09:24 31.29841 121.73119 6500 ft 252 kts 341°
2026-04-30 09:24 31.31519 121.72450 7149 ft 257 kts 338°
2026-04-30 09:24 31.33000 121.71308 7881 ft 259 kts 311°
2026-04-30 09:25 31.33873 121.69477 8718 ft 261 kts 290°
2026-04-30 09:25 31.34136 121.67374 9566 ft 266 kts 270°
2026-04-30 09:25 31.33846 121.65223 10396 ft 269 kts 263°
2026-04-30 09:25 31.33479 121.63082 11227 ft 268 kts 262°
2026-04-30 09:26 31.33117 121.60969 12061 ft 268 kts 262°
2026-04-30 09:26 31.32753 121.58831 12936 ft 268 kts 262°
2026-04-30 09:26 31.32395 121.56687 13826 ft 269 kts 262°
2026-04-30 09:26 31.32039 121.54537 14644 ft 269 kts 262°
2026-04-30 09:27 31.31684 121.52388 15395 ft 273 kts 262°
2026-04-30 09:27 31.31316 121.50153 15811 ft 289 kts 262°
2026-04-30 09:27 31.30923 121.47750 15950 ft 311 kts 262°
2026-04-30 09:27 31.30499 121.45177 16112 ft 332 kts 262°
2026-04-30 09:28 31.30046 121.42441 16276 ft 351 kts 262°
2026-04-30 09:28 31.29573 121.39597 16717 ft 360 kts 262°
2026-04-30 09:28 31.29091 121.36724 17402 ft 361 kts 261°
2026-04-30 09:28 31.28215 121.33956 18138 ft 369 kts 245°
2026-04-30 09:29 31.26741 121.31517 18813 ft 377 kts 234°
2026-04-30 09:29 31.24753 121.29399 19435 ft 384 kts 227°
2026-04-30 09:29 31.22688 121.27456 19750 ft 388 kts 226°
2026-04-30 09:29 31.20570 121.25495 20085 ft 391 kts 226°
2026-04-30 09:30 31.18443 121.23501 20703 ft 391 kts 227°
2026-04-30 09:30 31.16327 121.21487 21234 ft 393 kts 227°
2026-04-30 09:30 31.14211 121.19460 21762 ft 392 kts 228°
2026-04-30 09:30 31.12115 121.17453 22491 ft 389 kts 228°
2026-04-30 09:31 31.10056 121.15483 23002 ft 390 kts 228°
2026-04-30 09:31 31.08071 121.13286 23399 ft 382 kts 239°
2026-04-30 09:31 31.06665 121.10704 23832 ft 374 kts 250°
2026-04-30 09:31 31.05768 121.07889 24226 ft 369 kts 257°
2026-04-30 09:32 31.05057 121.05010 24606 ft 370 kts 258°
2026-04-30 09:32 31.04371 121.02124 24964 ft 372 kts 258°
2026-04-30 09:32 31.03678 120.99202 25316 ft 373 kts 257°
2026-04-30 09:32 31.02979 120.96287 25643 ft 375 kts 257°
2026-04-30 09:33 31.02262 120.93331 25679 ft 381 kts 258°
2026-04-30 09:33 31.01533 120.90355 25683 ft 382 kts 258°
2026-04-30 09:33 31.00795 120.87365 25697 ft 386 kts 257°
2026-04-30 09:33 31.00045 120.84338 25630 ft 390 kts 257°
2026-04-30 09:34 30.99292 120.81308 25670 ft 388 kts 257°
2026-04-30 09:34 30.98539 120.78287 25674 ft 387 kts 257°
2026-04-30 09:34 30.97789 120.75280 25684 ft 386 kts 257°
2026-04-30 09:34 30.97040 120.72279 25689 ft 386 kts 257°
2026-04-30 09:35 30.96290 120.69275 25690 ft 385 kts 257°
2026-04-30 09:35 30.95542 120.66283 25690 ft 385 kts 257°
2026-04-30 09:35 30.94793 120.63284 25690 ft 385 kts 257°
2026-04-30 09:35 30.94042 120.60286 25693 ft 385 kts 257°
2026-04-30 09:36 30.93290 120.57285 25688 ft 386 kts 257°
2026-04-30 09:36 30.92539 120.54290 25695 ft 386 kts 257°
2026-04-30 09:36 30.91784 120.51283 25696 ft 386 kts 257°
2026-04-30 09:36 30.91030 120.48285 25697 ft 386 kts 257°
2026-04-30 09:37 30.90072 120.45350 25683 ft 394 kts 246°
2026-04-30 09:37 30.88515 120.42692 25694 ft 400 kts 239°
2026-04-30 09:37 30.86570 120.40343 25658 ft 407 kts 228°
2026-04-30 09:37 30.84272 120.38377 25694 ft 413 kts 225°
2026-04-30 09:38 30.81902 120.36457 25695 ft 417 kts 225°
2026-04-30 09:38 30.79509 120.34533 25696 ft 419 kts 225°
2026-04-30 09:38 30.77111 120.32599 25688 ft 418 kts 225°
2026-04-30 09:38 30.74760 120.30692 25696 ft 418 kts 225°
2026-04-30 09:39 30.72385 120.28756 25690 ft 417 kts 225°
2026-04-30 09:39 30.70013 120.26814 25689 ft 417 kts 225°
2026-04-30 09:39 30.67642 120.24870 25698 ft 417 kts 225°
2026-04-30 09:39 30.65281 120.22933 25658 ft 415 kts 225°
2026-04-30 09:40 30.62924 120.21001 25690 ft 414 kts 225°
2026-04-30 09:40 30.60569 120.19071 25690 ft 414 kts 225°
2026-04-30 09:40 30.58212 120.17140 25694 ft 414 kts 225°
2026-04-30 09:40 30.55857 120.15213 25698 ft 414 kts 225°
2026-04-30 09:41 30.53500 120.13286 25702 ft 415 kts 225°
2026-04-30 09:41 30.51143 120.11358 25708 ft 415 kts 225°
2026-04-30 09:41 30.48781 120.09428 25703 ft 417 kts 225°
2026-04-30 09:41 30.46403 120.07485 25653 ft 420 kts 225°
2026-04-30 09:42 30.44006 120.05535 25691 ft 422 kts 224°
2026-04-30 09:42 30.41491 120.03727 25700 ft 429 kts 220°
2026-04-30 09:42 30.38896 120.02006 25700 ft 431 kts 220°
2026-04-30 09:42 30.36289 120.00293 25701 ft 431 kts 220°
2026-04-30 09:43 30.33676 119.98577 25696 ft 432 kts 220°
2026-04-30 09:43 30.31070 119.96860 25700 ft 431 kts 220°
2026-04-30 09:43 30.28464 119.95137 25699 ft 430 kts 220°
2026-04-30 09:43 30.25896 119.93437 25697 ft 429 kts 220°
2026-04-30 09:44 30.23310 119.91723 25698 ft 428 kts 220°
2026-04-30 09:44 30.20723 119.90011 25701 ft 427 kts 220°
2026-04-30 09:44 30.18152 119.88309 25698 ft 426 kts 220°
2026-04-30 09:44 30.15586 119.86604 25702 ft 425 kts 220°
2026-04-30 09:45 30.13017 119.84902 25694 ft 424 kts 220°
2026-04-30 09:45 30.10460 119.83210 25704 ft 424 kts 220°
2026-04-30 09:45 30.07898 119.81516 25700 ft 426 kts 220°
2026-04-30 09:45 30.05319 119.79810 25673 ft 428 kts 219°
2026-04-30 09:46 30.02730 119.78098 25685 ft 430 kts 220°
2026-04-30 09:46 30.00133 119.76362 25683 ft 433 kts 220°
2026-04-30 09:46 29.97538 119.74597 25694 ft 432 kts 220°
2026-04-30 09:46 29.94956 119.72841 25688 ft 431 kts 220°
2026-04-30 09:47 29.92356 119.71099 25705 ft 432 kts 220°
2026-04-30 09:47 29.89752 119.69356 25693 ft 434 kts 220°
2026-04-30 09:47 29.87032 119.67778 25701 ft 444 kts 212°
2026-04-30 09:47 29.84030 119.66698 25689 ft 459 kts 203°
2026-04-30 09:48 29.80834 119.66120 25677 ft 472 kts 194°
2026-04-30 09:48 29.77532 119.65983 25697 ft 475 kts 192°
2026-04-30 09:48 29.74232 119.65877 25703 ft 474 kts 193°
2026-04-30 09:48 29.70949 119.65685 25706 ft 472 kts 194°
2026-04-30 09:49 29.67670 119.65443 25709 ft 472 kts 194°
2026-04-30 09:49 29.64434 119.65208 25701 ft 472 kts 194°
2026-04-30 09:49 29.61149 119.65004 25704 ft 475 kts 192°
2026-04-30 09:49 29.57838 119.64925 25657 ft 476 kts 191°
2026-04-30 09:50 29.54527 119.64880 25693 ft 475 kts 191°
2026-04-30 09:50 29.51236 119.64782 25677 ft 471 kts 193°
2026-04-30 09:50 29.47966 119.64605 25715 ft 472 kts 192°
2026-04-30 09:50 29.44689 119.64471 25672 ft 468 kts 195°
2026-04-30 09:51 29.41479 119.64115 25707 ft 464 kts 195°
2026-04-30 09:51 29.38241 119.63836 25713 ft 466 kts 194°
2026-04-30 09:51 29.35081 119.63631 25672 ft 438 kts 194°
2026-04-30 09:51 29.32116 119.63475 25665 ft 418 kts 194°
2026-04-30 09:52 29.29195 119.63302 25710 ft 424 kts 194°
2026-04-30 09:52 29.26204 119.63103 25670 ft 436 kts 194°
2026-04-30 09:52 29.23147 119.62897 25707 ft 444 kts 194°
2026-04-30 09:52 29.20032 119.62695 25713 ft 453 kts 194°
2026-04-30 09:53 29.16859 119.62499 25731 ft 461 kts 193°
2026-04-30 09:53 29.13631 119.62303 25708 ft 467 kts 193°
2026-04-30 09:53 29.10367 119.62105 25717 ft 472 kts 193°
2026-04-30 09:53 29.08198 119.61971 25672 ft 475 kts 193°
2026-04-30 09:54 29.04887 119.61763 25705 ft 478 kts 193°
2026-04-30 09:54 29.01551 119.61553 25702 ft 482 kts 193°
2026-04-30 09:54 28.98192 119.61342 25717 ft 485 kts 193°
2026-04-30 09:54 28.94816 119.61132 25718 ft 487 kts 193°
2026-04-30 09:55 28.91429 119.60927 25729 ft 488 kts 193°
2026-04-30 09:55 28.88027 119.60721 25717 ft 491 kts 193°
2026-04-30 09:55 28.84611 119.60508 25721 ft 492 kts 193°
2026-04-30 09:55 28.81197 119.60286 25701 ft 492 kts 193°
2026-04-30 09:56 28.77773 119.60085 25702 ft 494 kts 192°
2026-04-30 09:56 28.74342 119.59894 25711 ft 493 kts 193°
2026-04-30 09:56 28.70915 119.59663 25721 ft 494 kts 193°
2026-04-30 09:56 28.67485 119.59437 25713 ft 494 kts 193°
2026-04-30 09:57 28.64046 119.59220 25717 ft 495 kts 193°
2026-04-30 09:57 28.60608 119.59009 25713 ft 495 kts 193°
2026-04-30 09:57 28.57162 119.58799 25687 ft 496 kts 192°
2026-04-30 09:57 28.53719 119.58588 25700 ft 496 kts 192°
2026-04-30 09:58 28.50267 119.58376 25710 ft 496 kts 192°
2026-04-30 09:58 28.46828 119.58162 25709 ft 496 kts 192°
2026-04-30 09:58 28.43426 119.57956 25718 ft 497 kts 192°
2026-04-30 09:58 28.39960 119.57778 25706 ft 498 kts 192°
2026-04-30 09:59 28.33042 119.57432 25704 ft 498 kts 191°
2026-04-30 09:59 28.26118 119.57056 25706 ft 497 kts 192°
2026-04-30 10:00 28.19211 119.56678 25706 ft 498 kts 191°
2026-04-30 10:00 28.15751 119.56495 25712 ft 498 kts 191°
2026-04-30 10:01 28.08831 119.56138 25713 ft 498 kts 191°
2026-04-30 10:01 28.05355 119.56052 25696 ft 500 kts 189°
2026-04-30 10:01 28.01868 119.56020 25700 ft 501 kts 189°
2026-04-30 10:02 27.94896 119.55949 25714 ft 501 kts 189°
2026-04-30 10:02 27.91411 119.55895 25718 ft 501 kts 189°
2026-04-30 10:02 27.87917 119.55857 25718 ft 502 kts 189°
2026-04-30 10:02 27.84421 119.55834 25706 ft 503 kts 188°
2026-04-30 10:03 27.80922 119.55822 25725 ft 503 kts 189°
2026-04-30 10:03 27.77423 119.55807 25701 ft 503 kts 188°
2026-04-30 10:03 27.73934 119.55789 25705 ft 502 kts 189°
2026-04-30 10:03 27.70443 119.55766 25702 ft 502 kts 189°
2026-04-30 10:04 27.66947 119.55743 25706 ft 502 kts 189°
2026-04-30 10:04 27.63459 119.55723 25695 ft 502 kts 189°
2026-04-30 10:04 27.59969 119.55701 25706 ft 501 kts 189°
2026-04-30 10:04 27.56478 119.55680 25687 ft 502 kts 188°
2026-04-30 10:05 27.53008 119.55662 25695 ft 497 kts 188°
2026-04-30 10:05 27.49567 119.55643 25691 ft 493 kts 189°
2026-04-30 10:05 27.46137 119.55619 25702 ft 494 kts 189°
2026-04-30 10:05 27.42693 119.55595 25692 ft 495 kts 189°
2026-04-30 10:06 27.39247 119.55586 25704 ft 495 kts 188°
2026-04-30 10:06 27.35847 119.55552 25704 ft 495 kts 189°
2026-04-30 10:06 27.32394 119.55565 25706 ft 497 kts 188°
2026-04-30 10:06 27.28933 119.55595 25669 ft 497 kts 188°
2026-04-30 10:07 27.25486 119.55608 25691 ft 495 kts 188°
2026-04-30 10:07 27.22046 119.55599 25684 ft 494 kts 188°
2026-04-30 10:07 27.18617 119.55574 25687 ft 493 kts 188°
2026-04-30 10:07 27.15191 119.55542 25690 ft 492 kts 188°
2026-04-30 10:08 27.11761 119.55511 25695 ft 492 kts 188°
2026-04-30 10:08 27.08340 119.55482 25697 ft 492 kts 188°
2026-04-30 10:08 27.04923 119.55455 25695 ft 491 kts 188°
2026-04-30 10:08 27.01507 119.55429 25692 ft 491 kts 188°
2026-04-30 10:09 26.98083 119.55406 25701 ft 491 kts 188°
2026-04-30 10:09 26.94663 119.55385 25697 ft 492 kts 188°
2026-04-30 10:09 26.91243 119.55366 25693 ft 492 kts 188°
2026-04-30 10:09 26.87815 119.55342 25718 ft 492 kts 188°
2026-04-30 10:10 26.84390 119.55315 25698 ft 492 kts 188°
2026-04-30 10:10 26.80971 119.55293 25700 ft 492 kts 188°
2026-04-30 10:10 26.77554 119.55267 25715 ft 491 kts 188°
2026-04-30 10:10 26.74179 119.55241 25695 ft 490 kts 187°
2026-04-30 10:11 26.70771 119.55218 25707 ft 490 kts 187°
2026-04-30 10:11 26.67361 119.55196 25717 ft 489 kts 187°
2026-04-30 10:11 26.63958 119.55173 25707 ft 489 kts 187°
2026-04-30 10:11 26.60554 119.55150 25711 ft 489 kts 187°
2026-04-30 10:12 26.57149 119.55128 25725 ft 489 kts 187°
2026-04-30 10:12 26.53753 119.55103 25718 ft 489 kts 187°
2026-04-30 10:12 26.50350 119.55079 25695 ft 489 kts 187°
2026-04-30 10:12 26.46947 119.55055 25703 ft 489 kts 187°
2026-04-30 10:13 26.43552 119.55032 25711 ft 488 kts 187°
2026-04-30 10:13 26.40147 119.55010 25711 ft 488 kts 187°
2026-04-30 10:13 26.36747 119.54982 25716 ft 488 kts 187°
2026-04-30 10:13 26.33353 119.54942 25722 ft 488 kts 187°
2026-04-30 10:14 26.29956 119.54897 25712 ft 489 kts 187°
2026-04-30 10:14 26.26547 119.54854 25712 ft 488 kts 187°
2026-04-30 10:14 26.19849 119.54208 25712 ft 476 kts 200°
2026-04-30 10:15 26.16735 119.53164 25722 ft 472 kts 204°
2026-04-30 10:15 26.13566 119.52025 25715 ft 473 kts 204°
2026-04-30 10:15 26.10476 119.50922 25725 ft 473 kts 204°
2026-04-30 10:15 26.07338 119.49821 25717 ft 474 kts 204°
2026-04-30 10:16 26.04184 119.48733 25721 ft 475 kts 203°
2026-04-30 10:16 26.01025 119.47656 25704 ft 475 kts 203°
2026-04-30 10:16 25.97863 119.46583 25684 ft 475 kts 202°
2026-04-30 10:17 25.91575 119.44448 25707 ft 473 kts 202°
2026-04-30 10:17 25.85283 119.42325 25712 ft 473 kts 202°
2026-04-30 10:17 25.82135 119.41256 25705 ft 474 kts 202°
2026-04-30 10:18 25.78987 119.40178 25705 ft 473 kts 204°
2026-04-30 10:18 25.75981 119.38775 25698 ft 466 kts 213°
2026-04-30 10:18 25.73232 119.36911 25694 ft 461 kts 219°
2026-04-30 10:19 25.68523 119.32196 25715 ft 455 kts 231°
2026-04-30 10:19 25.66368 119.29607 25702 ft 456 kts 231°
2026-04-30 10:19 25.64210 119.27022 25696 ft 457 kts 230°
2026-04-30 10:19 25.62045 119.24449 25692 ft 456 kts 230°
2026-04-30 10:20 25.59874 119.21882 25690 ft 456 kts 230°
2026-04-30 10:20 25.55521 119.16763 25706 ft 457 kts 230°
2026-04-30 10:20 25.53336 119.14200 25690 ft 457 kts 230°
2026-04-30 10:21 25.51151 119.11642 25688 ft 458 kts 230°
2026-04-30 10:21 25.48993 119.09113 25678 ft 458 kts 230°
2026-04-30 10:21 25.46805 119.06548 25685 ft 458 kts 230°
2026-04-30 10:21 25.44616 119.03983 25592 ft 455 kts 230°
2026-04-30 10:22 25.42467 119.01470 25349 ft 446 kts 230°
2026-04-30 10:22 25.40344 118.98986 25120 ft 444 kts 230°
2026-04-30 10:22 25.38216 118.96496 24897 ft 446 kts 230°
2026-04-30 10:22 25.36081 118.93998 24682 ft 447 kts 230°
2026-04-30 10:23 25.33937 118.91496 24462 ft 448 kts 230°
2026-04-30 10:23 25.31815 118.88973 24235 ft 449 kts 231°
2026-04-30 10:23 25.29731 118.86455 23911 ft 437 kts 231°
2026-04-30 10:23 25.27702 118.83995 23155 ft 432 kts 231°
2026-04-30 10:24 25.25682 118.81543 22208 ft 430 kts 231°
2026-04-30 10:24 25.23673 118.79108 21352 ft 427 kts 231°
2026-04-30 10:24 25.21687 118.76708 20776 ft 419 kts 231°
2026-04-30 10:24 25.19738 118.74359 20181 ft 412 kts 231°
2026-04-30 10:25 25.17818 118.72048 19606 ft 405 kts 231°
2026-04-30 10:25 25.15927 118.69770 19045 ft 399 kts 231°
2026-04-30 10:25 25.14058 118.67520 18484 ft 395 kts 231°
2026-04-30 10:25 25.12218 118.65308 17997 ft 387 kts 231°
2026-04-30 10:26 25.10426 118.63156 17854 ft 378 kts 231°
2026-04-30 10:26 25.08645 118.61025 17799 ft 376 kts 230°
2026-04-30 10:26 25.06864 118.58960 17533 ft 368 kts 230°
2026-04-30 10:26 25.05094 118.56933 17035 ft 365 kts 230°
2026-04-30 10:27 25.03340 118.54934 16549 ft 361 kts 229°
2026-04-30 10:27 25.01607 118.52952 16061 ft 357 kts 229°
2026-04-30 10:27 24.99895 118.50990 15590 ft 354 kts 229°
2026-04-30 10:27 24.98200 118.49040 15113 ft 351 kts 229°
2026-04-30 10:28 24.96516 118.47109 14649 ft 348 kts 229°
2026-04-30 10:28 24.94849 118.45198 14200 ft 345 kts 229°
2026-04-30 10:28 24.93198 118.43305 13888 ft 339 kts 229°
2026-04-30 10:28 24.91593 118.41470 13719 ft 327 kts 229°
2026-04-30 10:29 24.90049 118.39701 13635 ft 314 kts 229°
2026-04-30 10:29 24.88567 118.38003 13548 ft 301 kts 229°
2026-04-30 10:29 24.87139 118.36368 13466 ft 290 kts 229°
2026-04-30 10:29 24.85772 118.34793 13399 ft 279 kts 232°
2026-04-30 10:30 24.84850 118.33005 13304 ft 264 kts 257°
2026-04-30 10:30 24.84703 118.31053 13232 ft 253 kts 274°
2026-04-30 10:30 24.84574 118.29159 13007 ft 249 kts 252°
2026-04-30 10:30 24.83758 118.27469 12692 ft 253 kts 234°
2026-04-30 10:31 24.82526 118.26079 12392 ft 254 kts 225°
2026-04-30 10:31 24.81188 118.24807 12075 ft 255 kts 224°
2026-04-30 10:31 24.79831 118.23552 11826 ft 254 kts 224°
2026-04-30 10:31 24.78505 118.22323 11585 ft 252 kts 224°
2026-04-30 10:32 24.77151 118.21061 11319 ft 251 kts 224°
2026-04-30 10:32 24.75824 118.19815 11048 ft 251 kts 224°
2026-04-30 10:32 24.74501 118.18569 10786 ft 250 kts 224°
2026-04-30 10:32 24.73186 118.17327 10525 ft 249 kts 224°
2026-04-30 10:33 24.71889 118.16099 10279 ft 248 kts 224°
2026-04-30 10:33 24.70581 118.14859 10019 ft 248 kts 224°
2026-04-30 10:33 24.69279 118.13624 9751 ft 247 kts 224°
2026-04-30 10:33 24.67983 118.12394 9485 ft 245 kts 224°
2026-04-30 10:34 24.66694 118.11171 9229 ft 244 kts 224°
2026-04-30 10:34 24.65421 118.09964 9101 ft 235 kts 224°
2026-04-30 10:34 24.64218 118.08825 9017 ft 222 kts 224°
2026-04-30 10:34 24.63083 118.07748 8922 ft 210 kts 224°
2026-04-30 10:35 24.62004 118.06725 8780 ft 200 kts 224°
2026-04-30 10:35 24.60952 118.05725 8450 ft 200 kts 224°
2026-04-30 10:35 24.59916 118.04742 8153 ft 199 kts 224°
2026-04-30 10:35 24.58875 118.03755 7849 ft 198 kts 224°
2026-04-30 10:36 24.57832 118.02767 7538 ft 197 kts 224°
2026-04-30 10:36 24.56796 118.01786 7248 ft 196 kts 224°
2026-04-30 10:36 24.55829 118.00751 6958 ft 193 kts 230°
2026-04-30 10:36 24.54937 117.99656 6635 ft 193 kts 231°
2026-04-30 10:37 24.54046 117.98554 6285 ft 193 kts 230°
2026-04-30 10:37 24.53146 117.97445 5883 ft 196 kts 230°
2026-04-30 10:37 24.52242 117.96337 5611 ft 192 kts 230°
2026-04-30 10:37 24.51361 117.95264 5438 ft 183 kts 230°
2026-04-30 10:38 24.50535 117.94262 5246 ft 177 kts 230°
2026-04-30 10:38 24.49708 117.93250 4946 ft 177 kts 230°
2026-04-30 10:38 24.48893 117.92258 4608 ft 175 kts 230°
2026-04-30 10:38 24.48072 117.91265 4188 ft 177 kts 230°
2026-04-30 10:39 24.47247 117.90263 3805 ft 176 kts 229°
2026-04-30 10:39 24.46215 117.89566 3371 ft 178 kts 186°
2026-04-30 10:39 24.45094 117.89882 3118 ft 166 kts 142°
2026-04-30 10:39 24.44175 117.90674 3112 ft 172 kts 141°
2026-04-30 10:40 24.43237 117.91468 3001 ft 167 kts 141°
2026-04-30 10:40 24.42335 117.92230 2995 ft 163 kts 142°
2026-04-30 10:40 24.41646 117.93176 2991 ft 159 kts 107°
2026-04-30 10:40 24.41655 117.94371 2984 ft 159 kts 62°
2026-04-30 10:41 24.42239 117.95393 3007 ft 159 kts 57°
2026-04-30 10:41 24.42842 117.96412 2999 ft 159 kts 53°
2026-04-30 10:41 24.43486 117.97389 2998 ft 158 kts 51°
2026-04-30 10:41 24.43925 117.98026 2989 ft 159 kts 52°
2026-04-30 10:42 24.44606 117.98996 2868 ft 161 kts 51°
2026-04-30 10:42 24.45283 117.99950 2669 ft 156 kts 52°
2026-04-30 10:42 24.46151 118.01169 2397 ft 147 kts 52°
2026-04-30 10:42 24.46566 118.01753 2272 ft 145 kts 53°
2026-04-30 10:43 24.47189 118.02626 2080 ft 148 kts 52°
2026-04-30 10:43 24.47845 118.03534 1908 ft 154 kts 53°
2026-04-30 10:43 24.48703 118.04746 1586 ft 148 kts 55°
2026-04-30 10:43 24.49123 118.05343 1440 ft 144 kts 54°
2026-04-30 10:44 24.49958 118.06509 1238 ft 151 kts 54°
2026-04-30 10:44 24.50583 118.07394 1032 ft 142 kts 53°
2026-04-30 10:44 24.51179 118.08230 828 ft 137 kts 53°
2026-04-30 10:44 24.51577 118.08782 724 ft 141 kts 53°
2026-04-30 10:45 24.52176 118.09625 513 ft 139 kts 55°
2026-04-30 10:45 24.52760 118.10459 313 ft 137 kts 53°
2026-04-30 10:45 24.53364 118.11300 162 ft 143 kts 54°
2026-04-30 10:45 24.53955 118.12123 54 ft 129 kts 53°
2026-04-30 10:46 24.54414 118.12771 52 ft 77 kts 52°
2026-04-30 10:46 24.54611 118.13045 50 ft 12 kts 51°
2026-04-30 10:46 24.54660 118.13113 50 ft 11 kts 52°
2026-04-30 10:46 24.54693 118.13188 49 ft 11 kts 78°
2026-04-30 10:47 24.54707 118.13275 47 ft 13 kts 80°
2026-04-30 10:47 24.54707 118.13382 49 ft 15 kts 129°
2026-04-30 10:47 24.54624 118.13457 49 ft 15 kts 142°
2026-04-30 10:47 24.54535 118.13484 49 ft 15 kts 214°
2026-04-30 10:48 24.54473 118.13399 50 ft 14 kts 232°
2026-04-30 10:48 24.54414 118.13317 48 ft 13 kts 231°
2026-04-30 10:48 24.54358 118.13239 51 ft 13 kts 232°
2026-04-30 10:48 24.54304 118.13164 51 ft 13 kts 231°
2026-04-30 10:49 24.54250 118.13088 53 ft 12 kts 232°
2026-04-30 10:49 24.54199 118.13017 51 ft 12 kts 232°
2026-04-30 10:49 24.54147 118.12946 54 ft 12 kts 231°
2026-04-30 10:49 24.54100 118.12876 49 ft 11 kts 234°
2026-04-30 10:50 24.54054 118.12807 52 ft 11 kts 233°
2026-04-30 10:50 24.54006 118.12744 49 ft 11 kts 217°
2026-04-30 10:50 24.53949 118.12756 53 ft 1 kts 142°
2026-04-30 10:50 24.53941 118.12763 51 ft 3 kts 142°
2026-04-30 10:51 24.53930 118.12772 53 ft 0 kts 142°